KA2K Weather Reports


Display with metric or nautical units.
time (UTC)temp
F
wind
direction
speed
MPH
gust
MPH
rain 1hr
in
rain 24hr
in
rain mn
in
humidity
%
barometer
mb
20260905113023 70 303 0.0 0.0 0.00 0.00 0.00 81 1010.9
20260905112513 70 303 0.0 0.0 0.00 0.00 0.00 81 1011.0
20260905112013 70 303 0.0 0.0 0.00 0.00 0.00 81 1010.9
20260905111533 70 303 0.0 0.0 0.00 0.00 0.00 80 1010.8
20260905111016 70 303 0.0 0.0 0.00 0.00 0.00 81 1010.7
20260905110514 70 303 0.0 0.0 0.00 0.00 0.00 82 1010.6
20260905110030 70 303 0.0 0.0 0.00 0.00 0.00 83 1010.7
20260905105519 70 303 0.0 0.0 0.00 0.00 0.00 83 1010.7
20260905105016 70 303 0.0 0.0 0.00 0.00 0.00 82 1010.5
20260905104533 70 303 0.0 0.0 0.00 0.00 0.00 85 1010.2
20260905104019 70 303 0.0 0.0 0.00 0.00 0.00 85 1010.2
20260905103508 70 303 0.0 0.0 0.00 0.00 0.00 85 1010.2
20260905103019 70 303 0.0 0.0 0.00 0.00 0.00 84 1010.2
20260905102511 70 303 0.0 0.0 0.00 0.00 0.00 86 1010.1
20260905102011 70 303 0.0 0.0 0.00 0.00 0.00 86 1010.0
20260905101527 70 303 0.0 0.0 0.00 0.00 0.00 86 1010.0
20260905101012 70 303 0.0 0.0 0.00 0.00 0.00 86 1010.1
20260905100512 70 303 0.0 0.0 0.00 0.00 0.00 86 1010.0
20260905100034 70 303 0.0 0.0 0.00 0.00 0.00 85 1009.9
20260905095516 70 303 0.0 0.0 0.00 0.00 0.00 84 1010.0
20260905095019 70 303 0.0 0.0 0.00 0.00 0.00 84 1009.9
20260905094533 70 303 0.0 0.0 0.00 0.00 0.00 84 1009.8
20260905094015 70 303 0.0 0.0 0.00 0.00 0.00 84 1009.9
20260905093515 71 303 0.0 0.0 0.00 0.00 0.00 84 1009.9
20260905093034 70 303 0.0 0.0 0.00 0.00 0.00 84 1009.9
20260905092509 71 303 0.0 0.0 0.00 0.00 0.00 85 1009.9
20260905092014 71 303 0.0 0.0 0.00 0.00 0.00 85 1009.8
20260905091531 70 303 0.0 0.0 0.00 0.00 0.00 84 1009.9
20260905091013 71 303 0.0 0.0 0.00 0.00 0.00 85 1009.9
20260905090514 71 303 0.0 0.0 0.00 0.00 0.00 85 1009.9
20260905090028 71 303 0.0 0.0 0.00 0.00 0.00 87 1009.9
20260905085516 71 303 0.0 0.0 0.00 0.00 0.00 87 1009.9
20260905085015 71 303 0.0 0.0 0.00 0.00 0.00 87 1009.9
20260905084534 71 303 0.0 0.0 0.00 0.00 0.00 85 1009.9
20260905084016 71 303 0.0 0.0 0.00 0.00 0.00 85 1009.9
20260905083516 71 303 0.0 0.0 0.00 0.00 0.00 84 1009.8
20260905083035 71 303 0.0 0.0 0.00 0.00 0.00 84 1009.8
20260905082515 71 303 0.0 0.0 0.00 0.00 0.00 84 1009.8
20260905082018 71 303 0.0 0.0 0.00 0.00 0.00 84 1009.8
20260905081522 71 303 0.0 0.0 0.00 0.00 0.00 85 1009.8
20260905081011 71 303 0.0 0.0 0.00 0.00 0.00 84 1009.8
20260905080510 71 303 0.0 0.0 0.00 0.00 0.00 84 1009.8
20260905080026 71 303 0.0 0.0 0.00 0.00 0.00 86 1009.9
20260905075512 71 303 0.0 0.0 0.00 0.00 0.00 86 1009.9
20260905075015 71 303 0.0 0.0 0.00 0.00 0.00 87 1010.0
20260905074532 71 303 0.0 0.0 0.00 0.00 0.00 86 1010.0
20260905074018 71 303 0.0 0.0 0.00 0.00 0.00 87 1010.0
20260905073517 71 303 0.0 0.0 0.00 0.00 0.00 87 1010.1
20260905073039 71 303 0.0 0.0 0.00 0.00 0.00 87 1010.1
20260905072516 71 303 0.0 0.0 0.00 0.00 0.00 87 1010.1
20260905072018 71 303 0.0 0.0 0.00 0.00 0.00 87 1010.0
20260905071532 71 303 0.0 0.0 0.00 0.00 0.00 87 1010.0
20260905071020 71 303 0.0 0.0 0.00 0.00 0.00 87 1010.0
20260905070512 71 303 0.0 0.0 0.00 0.00 0.00 87 1010.2
20260905070026 71 303 0.0 0.0 0.00 0.00 0.00 86 1010.1
20260905065515 71 303 0.0 0.0 0.00 0.00 0.00 86 1010.1
20260905065014 71 303 0.0 0.0 0.00 0.00 0.00 87 1010.1
20260905064532 71 303 0.0 0.0 0.00 0.00 0.00 87 1010.1
20260905064015 71 303 0.0 0.0 0.00 0.00 0.00 86 1010.2
20260905063515 71 303 0.0 0.0 0.00 0.00 0.00 86 1010.3
20260905063032 71 303 0.0 0.0 0.00 0.00 0.00 85 1010.3
20260905062518 72 303 0.0 0.0 0.00 0.00 0.00 85 1010.4
20260905062015 72 303 0.0 0.0 0.00 0.00 0.00 85 1010.4
20260905061540 72 303 0.0 0.0 0.00 0.00 0.00 83 1010.4
20260905061020 72 303 0.0 0.0 0.00 0.00 0.00 83 1010.4
20260905060520 72 303 0.0 0.0 0.00 0.00 0.00 84 1010.4
20260905060033 72 303 0.0 0.0 0.00 0.00 0.00 84 1010.5
20260905055513 72 303 0.0 0.0 0.00 0.00 0.00 85 1010.6
20260905055014 72 303 0.0 0.0 0.00 0.00 0.00 85 1010.6
20260905054533 72 303 0.0 0.0 0.00 0.09 0.00 85 1010.7
20260905054015 73 303 0.0 0.0 0.00 0.21 0.00 86 1010.7
20260905053518 73 303 0.0 0.0 0.00 0.21 0.00 86 1010.6
20260905053034 73 303 0.0 0.0 0.00 0.21 0.00 82 1010.5
20260905052516 73 303 0.0 0.0 0.00 0.21 0.00 83 1010.5
20260905052018 73 303 0.0 0.0 0.00 0.21 0.00 85 1010.5
20260905051535 73 303 0.0 0.0 0.00 0.22 0.00 85 1010.6
20260905051015 73 303 0.0 0.0 0.00 0.22 0.00 84 1010.6
20260905050517 73 303 0.0 0.0 0.00 0.22 0.00 87 1010.6
20260905050020 73 303 0.0 0.0 0.00 0.24 0.00 90 1010.8
20260905045510 73 303 0.0 0.0 0.00 0.28 0.00 89 1010.7
20260905045014 74 303 0.0 0.0 0.00 0.28 0.00 91 1010.8
20260905044531 74 303 0.0 0.0 0.00 0.28 0.00 91 1010.9
20260905044011 74 303 0.0 0.0 0.00 0.28 0.00 91 1010.8
20260905043515 74 303 0.0 0.0 0.00 0.28 0.00 91 1010.7
20260905043031 74 303 0.0 0.0 0.00 0.28 0.00 91 1010.8
20260905042502 74 303 0.0 0.0 0.00 0.28 0.00 91 1010.8
20260905042006 74 303 0.0 0.0 0.00 0.28 0.00 91 1010.7
20260905041512 73 303 0.0 0.0 0.00 0.28 0.00 91 1010.8
20260905041007 74 303 0.0 0.0 0.00 0.28 0.00 91 1010.8
20260905040507 74 303 0.0 0.0 0.00 0.28 0.00 91 1010.9
20260905040019 74 303 0.0 0.0 0.00 0.28 0.00 91 1010.9
20260905035512 74 303 0.0 0.0 0.00 0.28 0.28 90 1010.9
20260905035010 74 303 0.0 0.0 0.00 0.28 0.28 91 1010.8
20260905034524 74 303 0.0 0.0 0.00 0.28 0.28 91 1010.9
20260905034013 74 303 0.0 0.0 0.00 0.28 0.28 91 1011.0
20260905033512 74 303 0.0 0.0 0.00 0.28 0.28 91 1011.0
20260905033029 74 303 0.0 0.0 0.00 0.28 0.28 91 1011.0
20260905032516 74 303 0.0 0.0 0.00 0.28 0.28 91 1010.9
20260905032017 74 303 0.0 0.0 0.00 0.28 0.28 91 1010.8
20260905031509 74 303 0.0 0.0 0.00 0.28 0.28 91 1010.8
20260905031003 74 303 0.0 0.0 0.00 0.28 0.28 91 1010.9
20260905030503 74 303 0.0 0.0 0.00 0.28 0.28 91 1010.8
20260905030014 74 303 0.0 0.0 0.00 0.28 0.28 91 1010.8
20260905025508 74 303 0.0 0.0 0.00 0.28 0.28 90 1010.8
20260905025011 74 303 0.0 0.0 0.00 0.28 0.28 90 1010.8
20260905024529 74 303 0.0 0.0 0.00 0.28 0.28 90 1010.8
20260905024010 74 303 0.0 0.0 0.00 0.28 0.28 90 1010.8
20260905023513 74 303 0.0 0.0 0.00 0.28 0.28 90 1010.8
20260905023027 75 303 0.0 0.0 0.00 0.28 0.28 90 1010.8
20260905022515 75 303 0.0 0.0 0.00 0.28 0.28 90 1010.9
20260905022014 75 303 0.0 0.0 0.00 0.28 0.28 90 1010.8
20260905021535 75 303 0.0 0.0 0.00 0.28 0.28 89 1010.9
20260905021017 75 303 0.0 0.0 0.00 0.28 0.28 89 1010.9
20260905020505 75 303 0.0 0.0 0.00 0.28 0.28 89 1010.8
20260905020014 75 303 0.0 0.0 0.00 0.28 0.28 90 1010.8
20260905015507 75 303 0.0 0.0 0.00 0.28 0.28 90 1010.7
20260905015011 75 303 0.0 0.0 0.00 0.28 0.28 91 1010.8
20260905014519 75 303 0.0 0.0 0.00 0.28 0.28 91 1010.9
20260905014007 75 303 0.0 0.0 0.00 0.28 0.28 91 1010.9
20260905013510 75 303 0.0 0.0 0.00 0.28 0.28 91 1010.9
20260905013026 75 303 0.0 0.0 0.00 0.28 0.28 91 1010.9
20260905012514 75 303 0.0 0.0 0.00 0.28 0.28 91 1010.9
20260905012014 75 303 0.0 0.0 0.00 0.28 0.28 91 1010.9
20260905011533 75 303 0.0 0.0 0.00 0.28 0.28 91 1011.0
20260905011015 75 303 0.0 0.0 0.00 0.28 0.28 91 1011.0
20260905010518 75 303 0.0 0.0 0.00 0.28 0.28 91 1011.0
20260905010037 75 303 0.0 0.0 0.00 0.28 0.28 91 1010.9
20260905005507 75 303 0.0 0.0 0.00 0.28 0.28 91 1010.9
20260905005008 75 303 0.0 0.0 0.00 0.28 0.28 91 1010.8
20260905004520 75 303 0.0 0.0 0.00 0.28 0.28 91 1010.7
20260905004008 76 303 0.0 0.0 0.00 0.28 0.28 90 1010.7
20260905003511 76 303 0.0 0.0 0.00 0.28 0.28 90 1010.8
20260905003026 76 303 0.0 0.0 0.00 0.28 0.28 90 1010.6
20260905002514 76 303 0.0 0.0 0.00 0.28 0.28 90 1010.6
20260905002015 76 303 0.0 0.0 0.00 0.28 0.28 90 1010.4
20260905001530 76 303 0.0 0.0 0.00 0.28 0.28 89 1010.4
20260905001015 76 303 0.0 0.0 0.00 0.28 0.28 89 1010.4
20260905000515 76 303 0.0 0.0 0.00 0.28 0.28 89 1010.4
20260905000035 76 303 0.0 0.0 0.00 0.28 0.28 89 1010.4
20260904235516 76 303 0.0 0.0 0.00 0.28 0.28 89 1010.4
20260904235018 76 303 0.0 0.0 0.00 0.28 0.28 89 1010.4
20260904234517 77 303 0.0 0.0 0.00 0.28 0.28 88 1010.5
20260904234011 77 303 0.0 0.0 0.00 0.28 0.28 87 1010.4
20260904233510 77 303 0.0 0.0 0.00 0.28 0.28 87 1010.6
20260904233025 77 303 0.0 0.0 0.00 0.28 0.28 86 1010.5
20260904232510 78 303 0.0 0.0 0.00 0.28 0.28 87 1010.5
20260904232013 78 303 0.0 0.0 0.00 0.28 0.28 87 1010.6
20260904231528 78 303 0.0 0.0 0.00 0.28 0.28 86 1010.6
20260904231019 78 303 0.0 0.0 0.00 0.28 0.28 85 1010.6
20260904230515 78 303 0.0 0.0 0.00 0.28 0.28 84 1010.5
20260904230008 78 303 0.0 0.0 0.00 0.28 0.28 83 1010.6
20260904225503 79 303 0.0 0.0 0.00 0.28 0.28 82 1010.6
20260904225002 79 303 0.0 0.0 0.00 0.28 0.28 82 1010.6
20260904224515 79 303 0.0 0.0 0.00 0.28 0.28 81 1010.5
20260904224007 79 303 0.0 0.0 0.00 0.28 0.28 80 1010.5
20260904223509 79 303 0.0 0.0 0.00 0.28 0.28 80 1010.5
20260904223021 79 303 0.0 0.0 0.00 0.28 0.28 81 1010.6
20260904222510 80 303 0.0 0.0 0.00 0.28 0.28 82 1010.6
20260904222017 80 303 0.0 0.0 0.00 0.28 0.28 82 1010.5
20260904221527 80 303 0.0 0.0 0.00 0.28 0.28 81 1010.5
20260904221014 80 303 0.0 0.0 0.00 0.28 0.28 80 1010.5
20260904220516 80 303 0.0 0.0 0.00 0.28 0.28 80 1010.4
20260904220032 80 303 0.0 0.0 0.00 0.28 0.28 79 1010.6
20260904215503 80 303 0.0 0.0 0.00 0.28 0.28 78 1010.5
20260904215006 80 303 0.0 0.0 0.00 0.28 0.28 78 1010.6
20260904214511 81 303 0.0 0.0 0.00 0.28 0.28 78 1010.6
20260904214008 81 303 0.0 0.0 0.00 0.28 0.28 76 1010.7
20260904213506 81 303 0.0 0.0 0.00 0.28 0.28 74 1010.7
20260904213016 82 303 0.0 0.0 0.00 0.28 0.28 72 1010.7
20260904212510 82 303 0.0 0.0 0.00 0.28 0.28 72 1010.5
20260904212011 83 303 0.0 2.0 0.00 0.28 0.28 67 1010.4
20260904211526 83 303 0.0 2.0 0.00 0.28 0.28 66 1010.4
20260904211014 83 351 0.0 0.0 0.00 0.28 0.28 67 1010.3
20260904210514 83 351 0.0 0.0 0.00 0.28 0.28 71 1010.2
20260904210030 84 351 0.0 0.0 0.00 0.28 0.28 67 1010.2
20260904205514 84 351 0.0 0.0 0.00 0.28 0.28 69 1010.3
20260904205015 84 351 0.0 2.0 0.00 0.28 0.28 69 1010.4
20260904204512 85 331 0.0 2.0 0.00 0.28 0.28 67 1010.4
20260904204003 84 330 0.0 2.0 0.00 0.28 0.28 66 1010.6
20260904203507 84 304 0.0 0.0 0.00 0.28 0.28 71 1010.6
20260904203027 84 71 0.0 0.0 0.00 0.28 0.28 68 1010.6
20260904202510 85 71 0.0 0.0 0.00 0.28 0.28 67 1010.7
20260904202009 85 71 0.0 0.0 0.00 0.28 0.28 68 1010.7
20260904201521 85 325 0.0 0.0 0.00 0.28 0.28 69 1010.7
20260904201012 85 325 0.0 0.0 0.00 0.28 0.28 65 1010.8
20260904200512 85 325 0.0 0.0 0.00 0.28 0.28 71 1010.9
20260904200030 85 215 0.0 0.0 0.00 0.28 0.28 68 1010.9
20260904195521 84 303 0.0 2.0 0.00 0.28 0.28 68 1010.8
20260904195015 84 296 0.0 2.0 0.00 0.28 0.28 66 1010.8
20260904194533 85 296 0.0 2.0 0.00 0.28 0.28 65 1010.9
20260904194015 86 74 1.0 2.0 0.00 0.28 0.28 66 1010.9
20260904193504 86 316 0.0 2.0 0.00 0.28 0.28 67 1011.2
20260904193012 85 316 0.0 2.0 0.00 0.28 0.28 64 1011.3
20260904192507 85 344 0.0 2.0 0.00 0.28 0.28 67 1011.3
20260904192012 84 263 0.0 2.0 0.00 0.28 0.28 70 1011.4
20260904191518 83 307 0.0 2.0 0.00 0.28 0.28 71 1011.6
20260904191010 83 307 0.0 2.0 0.00 0.28 0.28 69 1011.7
20260904190512 84 307 0.0 2.0 0.00 0.28 0.28 66 1011.7
20260904190028 85 344 0.0 2.0 0.00 0.28 0.28 64 1011.7
20260904185514 85 313 1.0 2.0 0.00 0.28 0.28 64 1011.8
20260904185017 86 293 0.0 5.0 0.00 0.28 0.28 65 1011.7
20260904184530 86 314 1.0 5.0 0.00 0.28 0.28 63 1011.7
20260904184016 86 360 1.0 5.0 0.00 0.28 0.28 62 1011.7
20260904183517 86 22 1.0 5.0 0.00 0.28 0.28 65 1011.7
20260904183033 87 333 0.0 3.0 0.00 0.28 0.28 64 1011.9
20260904182507 86 309 1.0 3.0 0.00 0.28 0.28 62 1011.9
20260904182011 86 91 1.0 3.0 0.00 0.28 0.28 63 1011.7
20260904181522 86 340 1.0 3.0 0.00 0.28 0.28 64 1011.7
20260904181012 86 296 1.0 3.0 0.00 0.28 0.28 61 1011.8
20260904180511 86 311 0.0 3.0 0.00 0.28 0.28 65 1011.8
20260904180040 86 311 1.0 3.0 0.00 0.28 0.28 66 1011.7
20260904175512 86 307 1.0 2.0 0.00 0.28 0.28 62 1011.8
20260904175014 86 58 0.0 3.0 0.00 0.28 0.28 66 1011.8
20260904174536 86 321 1.0 3.0 0.00 0.28 0.28 66 1011.8
20260904174018 86 324 1.0 3.0 0.00 0.28 0.28 65 1011.8
20260904173515 86 274 1.0 4.0 0.00 0.28 0.28 66 1011.7
20260904173038 86 305 0.0 4.0 0.00 0.28 0.28 64 1011.7
20260904172516 86 288 0.0 2.0 0.00 0.28 0.28 67 1011.8
20260904172018 86 360 1.0 3.0 0.00 0.28 0.28 68 1011.9
20260904171529 85 300 1.0 3.0 0.00 0.28 0.28 65 1011.9
20260904171003 85 360 1.0 3.0 0.00 0.28 0.28 67 1012.0
20260904170509 85 246 2.0 3.0 0.00 0.28 0.28 65 1012.0
20260904170020 86 169 1.0 2.0 0.00 0.28 0.28 65 1012.0
20260904165510 85 327 1.0 2.0 0.00 0.28 0.28 66 1011.9
20260904165012 85 288 1.0 2.0 0.00 0.28 0.28 67 1012.0
20260904164527 84 325 1.0 2.0 0.00 0.28 0.28 67 1011.9
20260904164014 85 196 0.0 2.0 0.00 0.28 0.28 65 1011.9
20260904163515 85 285 0.0 3.0 0.00 0.28 0.28 68 1011.9
20260904163030 84 284 1.0 3.0 0.00 0.28 0.28 67 1011.9
20260904162517 84 12 0.0 2.0 0.00 0.28 0.28 69 1011.9
20260904162015 85 184 1.0 4.0 0.00 0.28 0.28 72 1012.0
20260904161533 85 169 1.0 4.0 0.00 0.28 0.28 70 1012.0
20260904161017 84 43 1.0 3.0 0.00 0.28 0.28 70 1012.0
20260904160506 84 72 0.0 3.0 0.00 0.28 0.28 71 1012.0
20260904160018 83 64 1.0 2.0 0.00 0.28 0.28 73 1012.0
20260904155512 83 76 1.0 2.0 0.00 0.28 0.28 71 1012.0
20260904155014 84 49 1.0 3.0 0.00 0.28 0.28 72 1012.0
20260904154537 84 30 1.0 3.0 0.00 0.28 0.28 71 1012.1
20260904154017 84 76 1.0 3.0 0.00 0.28 0.28 69 1012.1
20260904153517 84 360 1.0 4.0 0.00 0.28 0.28 71 1012.1
20260904153035 83 360 1.0 4.0 0.00 0.28 0.28 73 1012.1
20260904152515 83 277 1.0 4.0 0.00 0.28 0.28 73 1012.1
20260904152015 83 323 1.0 4.0 0.00 0.28 0.28 73 1012.1
20260904151535 83 329 1.0 4.0 0.00 0.28 0.28 71 1012.1
20260904151015 83 9 1.0 4.0 0.00 0.28 0.28 71 1012.1
20260904150515 83 95 1.0 3.0 0.00 0.28 0.28 72 1012.0
20260904150031 83 180 1.0 3.0 0.00 0.28 0.28 74 1012.1
20260904145507 83 23 0.0 3.0 0.00 0.28 0.28 74 1012.0
20260904145013 83 204 1.0 3.0 0.00 0.28 0.28 73 1012.2
20260904144522 83 327 0.0 2.0 0.00 0.28 0.28 79 1012.0
20260904144016 82 23 0.0 2.0 0.00 0.28 0.28 76 1012.0
20260904143513 82 286 1.0 2.0 0.00 0.28 0.28 76 1012.0
20260904143029 82 17 0.0 2.0 0.00 0.28 0.28 79 1012.1
20260904142515 81 17 0.0 2.0 0.00 0.28 0.28 78 1012.0
20260904142015 81 323 1.0 2.0 0.00 0.28 0.28 76 1012.1
20260904141531 81 40 0.0 2.0 0.00 0.28 0.28 80 1012.1
20260904141015 81 147 0.0 2.0 0.00 0.28 0.28 80 1012.1
20260904140517 81 15 0.0 2.0 0.00 0.28 0.28 81 1012.0
20260904140015 80 342 0.0 4.0 0.00 0.28 0.28 79 1011.9
20260904135508 80 329 0.0 4.0 0.00 0.28 0.28 81 1012.0
20260904135011 80 300 0.0 2.0 0.00 0.28 0.28 81 1012.0
20260904134520 79 360 0.0 2.0 0.00 0.29 0.28 82 1012.0
20260904134009 79 327 0.0 2.0 0.00 0.29 0.28 84 1011.9
20260904133511 79 351 0.0 2.0 0.00 0.29 0.28 83 1012.0
20260904133004 79 297 0.0 2.0 0.00 0.29 0.28 83 1012.0
20260904132504 78 331 0.0 2.0 0.00 0.29 0.28 85 1011.9
20260904132004 78 302 0.0 2.0 0.00 0.29 0.28 88 1011.8
20260904131506 77 351 0.0 2.0 0.00 0.29 0.28 87 1011.8
20260904131003 77 163 0.0 2.0 0.00 0.29 0.28 89 1011.9
20260904130503 76 163 0.0 2.0 0.00 0.29 0.28 89 1011.9
20260904130011 76 171 0.0 2.0 0.00 0.29 0.28 90 1012.0
20260904125506 76 360 0.0 2.0 0.00 0.29 0.28 91 1011.9
20260904125006 75 273 0.0 2.0 0.00 0.29 0.28 94 1012.0
20260904124516 74 275 0.0 2.0 0.00 0.29 0.28 94 1011.9
20260904124008 74 300 0.0 0.0 0.00 0.29 0.28 95 1012.0
20260904123509 73 221 0.0 1.0 0.00 0.29 0.28 95 1011.9
20260904123025 73 231 0.0 1.0 0.00 0.29 0.28 95 1012.0
20260904122515 73 231 0.0 2.0 0.00 0.29 0.28 95 1012.1
20260904122005 73 231 0.0 2.0 0.00 0.29 0.28 95 1011.9
20260904121504 72 231 0.0 2.0 0.00 0.29 0.28 96 1011.9
20260904121003 72 223 0.0 2.0 0.00 0.29 0.28 96 1011.9
20260904120503 72 223 0.0 2.0 0.00 0.29 0.28 96 1011.9
20260904120009 72 335 0.0 0.0 0.00 0.29 0.28 96 1011.8
20260904115503 72 335 0.0 0.0 0.00 0.29 0.28 96 1011.8
20260904115007 72 335 0.0 0.0 0.00 0.29 0.28 96 1011.8
20260904114516 72 335 0.0 0.0 0.00 0.29 0.28 96 1011.7
20260904114008 71 335 0.0 0.0 0.00 0.29 0.28 96 1011.7
20260904113508 71 335 0.0 0.0 0.00 0.29 0.28 96 1011.6